Location: Squirrel Cove
(50.1074°N, 124.9139°W)
Time: 19:20:58
(UTC-08:00)

Envisat - Pass Details

Date: 27 November 2022
Orbit: 763 x 765 km, 98.2° (Epoch: 05 February)

Event Time Altitude Azimuth Distance (km) Brightness Sun altitude
Rises 06:43:17 0° 1° (N) 3,247 6.0 -10.6°
Reaches altitude 10° 06:46:53 10° 334° (NNW) 2,315 5.1 -10.1°
Maximum altitude 06:49:05 13° 309° (NW) 2,115 4.7 -9.7°
Enters shadow 06:50:09 12° 295° (WNW) 2,161 4.6 -9.6°
